Regional Weather Roundup
Issued by NWS Sterling, VA

Home | Current Version | Previous Version | Text Only | Print | Product List | Glossary On
Versions: 1 2 3 4 5 6 7 8 9 10 11 12 13 14 15 16 17 18 19 20 21 22 23 24 25 26 27 28
000
ASUS41 KLWX 180811
RWRLWX

REGIONAL WEATHER ROUNDUP
NATIONAL WEATHER SERVICE BALTIMORE MD/WASHINGTON DC
300 AM EST THU JAN 18 2018

Note: "FAIR" indicates few or no clouds below 12,000 feet
with no significant weather and/or obstructions to visibility.
 TC=TEMPERATURE CELSIUS

 * =Non NWS site. Station does not report precipitation (e.g. rain,
    snow, etc.), thunder, or fog.

DCZ001-MDZ009-015-VAZ040>042-051-053>054-180900-
WASHINGTON METRO

CITY           SKY/WX    TMP DP  RH WIND       PRES   REMARKS
WASHINGTON NAT FAIR      19   7  59 NW16      30.19F WCI   4
DULLES         FAIR      17   7  64 NW14G20   30.20F WCI   3
ANDREWS AFB    FAIR      17   6  60 NW16G29   30.15F WCI   2
FT BELVOIR     FAIR      19   5  55 NW14G21   30.18F WCI   5
COLLEGE PARK*  FAIR      18   5  57 NW14G20   30.17F WCI   4
LEESBURG*      FAIR      19  10  68 NW17G29   30.21F WCI   4
MANASSAS*      FAIR      15   8  73 N9        30.20F WCI   3
GAITHERSBURG*  FAIR      14   6  70 NW15G21   30.16F WCI  -1

$$

MDZ006>007-011-014-180900-
BALTIMORE METRO

CITY           SKY/WX    TMP DP  RH WIND       PRES   REMARKS
BWI AIRPORT    FAIR      17   8  67 NW12      30.15F WCI   4
MD SCIENCE CTR   N/A     21   7  54 MISG      30.16F
ANNAPOLIS      FAIR      21  11  65 NW13G22   30.15F WCI   9
FORT MEADE*    FAIR      18   9  68 NW10G18   30.18F WCI   6

$$

MDZ012-015-019>023-180900-
MARYLAND EASTERN SHORE

CITY           SKY/WX    TMP DP  RH WIND       PRES   REMARKS
OCEAN CITY     FAIR      22  12  65 N17G32    30.10  WCI   8
SALISBURY      FAIR      22   9  57 NW20G26   30.13S WCI   7
BAY BRIDGE AP* FAIR      19  10  68 NW10G18   30.17F WCI   8
CAMBRIDGE*     CLEAR     21  10  63 NW12G22   30.18R WCI   9
EASTON*        FAIR      21   9  59 N9G16     30.23R WCI  11

$$

MDZ017>025-180900-
SOUTHERN MARYLAND

CITY           SKY/WX    TMP DP  RH WIND       PRES   REMARKS
PATUXENT RIVER NOT AVBL
ST INIGOES     FAIR      20   8  60 NW8       30.20R WCI  10
LEONARDTOWN*   FAIR      19   9  63 NW3       30.22R

$$

MDZ003>005-180900-
NORTH CENTRAL MARYLAND

CITY           SKY/WX    TMP DP  RH WIND       PRES   REMARKS
FREDERICK*     FAIR      19   5  53 CALM      30.24F
HAGERSTOWN APT FAIR      14   5  67 SW5       30.21F WCI   6
WESTMINSTER*   FAIR      16   9  73 NW6       30.15F WCI   7

$$

MDZ501>502-180900-
WESTERN MARYLAND

CITY           SKY/WX    TMP DP  RH WIND       PRES   REMARKS
OAKLAND*       CLOUDY     3   1  92 W15G21    30.11S WCI -15
CUMBERLAND*    FAIR      16   3  57 N3        30.30F

$$

VAZ025>031-180900-
SHENANDOAH VALLEY

CITY           SKY/WX    TMP DP  RH WIND       PRES   REMARKS
WINCHESTER*    FAIR      19   3  49 W9        30.23F WCI   9
FRONT ROYAL*   FAIR      18   5  57 SE3       30.22F
LURAY*         FAIR      14   7  73 CALM      30.22F
NEW MARKET*    FAIR      10   5  80 CALM      30.22F
STAUNTON*      FAIR       6   2  80 CALM      30.23F
WAYNESBORO*    FAIR      11   3  69 W3        30.19F

$$

WVZ021-048>050-054>055-180900-
EASTERN WEST VIRGINIA PANHANDLE

CITY           SKY/WX    TMP DP  RH WIND       PRES   REMARKS
MARTINSBURG    FAIR      16   5  62 W9        30.22F WCI   4
PETERSBURG*    FAIR       2  -1  87 CALM      30.27F

$$

VAZ036>039-050-180900-
CENTRAL FOOTHILLS

CITY           SKY/WX    TMP DP  RH WIND       PRES   REMARKS
CHARLOTTESVILL FAIR      22   3  44 NW9G18    30.17F WCI  12
CULPEPER*      FAIR      14   6  70 CALM      30.19F
ORANGE*        FAIR      12   7  79 CALM      30.18F
GORDONSVILLE*  FAIR      12   8  83 MISG      30.18F
WARRENTON*     FAIR      11   5  78 CALM      30.18F

$$

VAZ055>057-180900-
NORTH AND CENTRAL PIEDMONT

CITY           SKY/WX    TMP DP  RH WIND       PRES   REMARKS
FREDERICKSBRG* FAIR      19   9  66 N5        30.20S WCI  12
STAFFORD*      FAIR      18   8  66 NW10      30.22F WCI   6

$$

NCZ024-NYZ072-PAZ021-071-VAZ022-071-180900-
OTHER REGIONAL OBSERVATIONS

CITY           SKY/WX    TMP DP  RH WIND       PRES   REMARKS
NEW YORK CITY  FAIR      20   9  62 W9        30.13F WCI   9
PHILADELPHIA   FAIR      19   7  59 NW14      30.14F WCI   6
PITTSBURGH     FAIR       8   4  83 SW10      30.26S WCI  -6
ROANOKE        FAIR      13   3  64 W8        30.27F WCI   2
RICHMOND       FAIR      19   7  59 N10       30.20S WCI   7
RALEIGH        FLURRIES  19  12  74 VRB6      30.24R WCI  11

$$

ANZ530>537-180900-
MARINE OBSERVATIONS

STATION/POSITION TIME  TEMP    WIND        PRES
                       AIR SEA DIR/SP/G
                 (UTC) (F)     (DEG/KT/KT) (MB)
THOMAS PT LIGHT  0800   18 31  310/ 10/ 12   N/A
BALT KEY BRIDGE  0742   21     310/ 18/ 21 1021.4F
COVE POINT       0742   20     360/ 21/ 26 1023.1R
LEWISETTA        0742   22 31  350/ 15/ 21 1022.9R
SOLOMONS ISLAND  0742   20 34  340/ 10/ 17 1022.4R
PINEY POINT      0742           10/ 13/ 16   N/A

$$





USA.gov is the U.S. government's official web portal to all federal, state and local government web resources and services.